Date String (YYYY-MM-DD hh:mm:ss) UTC,Instrument flags,Ambient pressure (hPa),Sample flow (lpm),Bypass flow (lpm),Sample temperature (°C),Ambient temperature (°C),ASC tube jacket temperature (°C),LED temperature (°C),Box temperature (°C),Sample RH (%),Span deviation,Mass concentration (μg/m³),Mass concentration (μg/m³),Mass concentration (μg/m³)
DateTimeUTC,F1_M11,P_M11,Q1_M11,Q2_M11,T1_M11,T2_M11,T3_M11,T4_M11,T5_M11,U1_M11,ZSPAN_M11,X0_M11,X2_M11,X1_M11
2022-08-03 15:00:00,,0829.3,4.99,0.00,31.1,27.3,00.0,39.2,31.8,33.8,0000.0,0013.14,0004.49,0003.63
2022-08-03 15:01:00,,0829.4,5.00,0.00,31.0,27.4,00.0,39.2,31.7,33.9,0000.0,0012.63,0004.49,0003.63
2022-08-03 15:02:00,,0829.4,5.00,0.00,30.9,27.5,00.0,39.2,31.7,34.2,0000.0,0011.53,0004.54,0003.63
2022-08-03 15:03:00,,0829.4,4.99,0.00,30.8,27.7,00.0,39.2,31.8,34.8,0000.0,0012.54,0004.60,0003.64
2022-08-03 15:04:00,,0829.4,5.00,0.00,30.8,27.8,00.0,39.2,31.8,35.1,0000.0,0012.47,0004.60,0003.63
2022-08-03 15:05:00,,0829.4,5.00,0.00,30.9,28.0,00.0,39.2,31.9,35.5,0000.0,0012.43,0004.60,0003.64
2022-08-03 15:06:00,,0829.4,5.01,0.00,31.2,28.1,00.0,39.2,32.1,35.1,0000.0,0012.38,0004.60,0003.64
2022-08-03 15:07:00,,0829.5,5.00,0.00,31.5,28.3,00.0,39.2,32.2,33.7,0000.0,0012.37,0004.61,0003.64
2022-08-03 15:08:00,,0829.5,5.00,0.00,31.6,28.4,00.0,39.3,32.3,33.6,0000.0,0011.74,0004.57,0003.65
2022-08-03 15:09:00,,0829.5,5.00,0.00,31.7,28.5,00.0,39.3,32.2,33.9,0000.0,0011.44,0004.56,0003.65
2022-08-03 15:10:00,,0829.5,5.00,0.00,31.7,28.6,00.0,39.4,32.2,33.5,0000.0,0012.01,0004.65,0003.65
2022-08-03 15:11:00,,0829.5,5.01,0.00,31.7,28.7,00.0,39.5,32.3,33.6,0000.0,0012.38,0004.64,0003.65
2022-08-03 15:12:00,,0829.4,5.00,0.00,31.7,28.8,00.0,39.5,32.3,33.9,0000.0,0013.08,0004.65,0003.67
2022-08-03 15:13:00,,0829.5,5.00,0.00,31.7,28.9,00.0,39.6,32.3,34.1,0000.0,0013.71,0004.65,0003.69
2022-08-03 15:14:00,,0829.5,4.99,0.00,31.7,28.9,00.0,39.7,32.4,33.7,0000.0,0013.10,0004.62,0003.71
2022-08-03 15:15:00,,0829.6,5.01,0.00,31.7,28.8,00.0,39.7,32.3,33.6,0000.0,0013.03,0004.63,0003.74
2022-08-03 15:16:00,,0829.5,5.00,0.00,31.6,28.2,00.0,39.7,32.1,33.5,0000.0,0013.10,0004.65,0003.76
2022-08-03 15:17:00,,0829.5,5.00,0.00,31.5,27.6,00.0,39.7,32.0,33.9,0000.0,0013.20,0004.65,0003.79
2022-08-03 15:18:00,,0829.5,4.98,0.00,31.4,27.4,00.0,39.7,32.0,33.6,0000.0,0013.22,0004.69,0003.83
2022-08-03 15:19:00,,0829.5,5.00,0.00,31.3,27.5,00.0,39.6,31.9,33.6,0000.0,0013.27,0004.75,0003.88
2022-08-03 15:20:00,,0829.5,5.00,0.00,31.2,27.6,00.0,39.6,31.9,34.1,0000.0,0012.98,0004.80,0003.92
2022-08-03 15:21:00,,0829.5,5.00,0.00,31.1,27.7,00.0,39.6,31.9,34.5,0000.0,0013.08,0004.80,0003.96
2022-08-03 15:22:00,,0829.5,4.99,0.00,31.0,27.9,00.0,39.5,31.9,35.0,0000.0,0013.61,0004.85,0003.99
2022-08-03 15:23:00,,0829.5,5.01,0.00,31.1,28.1,00.0,39.5,32.0,35.1,0000.0,0014.65,0004.93,0004.01
2022-08-03 15:24:00,,0829.6,5.00,0.00,31.3,28.2,00.0,39.5,32.2,34.6,0000.0,0014.05,0004.94,0004.02
2022-08-03 15:25:00,,0829.6,5.01,0.00,31.4,28.3,00.0,39.5,32.2,34.4,0000.0,0014.12,0004.99,0004.02
2022-08-03 15:26:00,,0829.5,5.00,0.00,31.4,28.5,00.0,39.5,32.2,33.8,0000.0,0014.40,0005.02,0004.02
2022-08-03 15:27:00,,0829.5,5.00,0.00,31.5,28.6,00.0,39.5,32.3,33.5,0000.0,0014.29,0005.00,0004.02
2022-08-03 15:28:00,,0829.5,5.00,0.00,31.5,28.7,00.0,39.6,32.3,33.8,0000.0,0014.31,0005.00,0004.02
2022-08-03 15:29:00,,0829.6,4.99,0.00,31.5,28.8,00.0,39.6,32.3,33.8,0000.0,0014.48,0005.00,0004.01
2022-08-03 15:30:00,,0829.6,4.99,0.00,31.4,28.9,00.0,39.6,32.3,33.7,0000.0,0014.44,0005.01,0004.01
2022-08-03 15:31:00,,0829.6,5.01,0.00,31.4,28.9,00.0,39.7,32.3,34.0,0000.0,0014.93,0004.98,0004.01
2022-08-03 15:32:00,,0829.6,4.99,0.00,31.4,28.5,00.0,39.7,32.2,33.9,0000.0,0014.89,0004.93,0004.01
2022-08-03 15:33:00,,0829.5,5.01,0.00,31.3,27.8,00.0,39.6,32.1,34.0,0000.0,0014.02,0004.90,0004.00
2022-08-03 15:34:00,,0829.5,5.01,0.00,31.3,27.5,00.0,39.6,32.0,34.2,0000.0,0012.64,0004.82,0003.99
2022-08-03 15:35:00,,0829.5,4.99,0.00,31.1,27.5,00.0,39.6,31.9,34.5,0000.0,0013.02,0004.86,0004.01
2022-08-03 15:36:00,,0829.6,5.00,0.00,31.0,27.6,00.0,39.5,31.9,34.6,0000.0,0012.91,0004.82,0004.02
2022-08-03 15:37:00,,0829.5,5.01,0.00,31.0,27.7,00.0,39.5,31.9,34.5,0000.0,0011.98,0004.80,0004.03
2022-08-03 15:38:00,,0829.5,4.99,0.00,30.9,27.9,00.0,39.5,31.9,34.5,0000.0,0011.75,0004.80,0004.05
2022-08-03 15:39:00,,0829.5,4.99,0.00,30.8,28.0,00.0,39.5,31.9,34.8,0000.0,0011.75,0004.83,0004.07
2022-08-03 15:40:00,,0829.5,5.01,0.00,30.8,28.2,00.0,39.4,32.0,35.0,0000.0,0011.42,0004.83,0004.10
2022-08-03 15:41:00,,0829.6,5.00,0.00,30.9,28.3,00.0,39.4,32.0,34.4,0000.0,0011.49,0004.87,0004.11
2022-08-03 15:42:00,,0829.8,4.99,0.00,30.9,28.4,00.0,39.4,32.1,34.3,0000.0,0010.77,0004.85,0004.12
2022-08-03 15:43:00,,0829.8,5.00,0.00,30.9,28.6,00.0,39.4,32.1,34.2,0000.0,0010.61,0004.83,0004.13
2022-08-03 15:44:00,,0829.7,5.01,0.00,30.9,28.7,00.0,39.4,32.1,34.6,0000.0,0010.50,0004.84,0004.14
2022-08-03 15:45:00,,0829.7,5.00,0.00,30.9,28.8,00.0,39.4,32.1,34.7,0000.0,0010.78,0004.85,0004.15
2022-08-03 15:46:00,,0829.7,4.99,0.00,30.9,28.8,00.0,39.4,32.2,34.9,0000.0,0010.79,0004.84,0004.14
2022-08-03 15:47:00,,0829.9,5.00,0.00,31.0,28.9,00.0,39.4,32.2,36.0,0000.0,0010.84,0004.83,0004.12
2022-08-03 15:48:00,,0829.7,5.01,0.00,31.2,28.6,00.0,39.4,32.3,36.1,0000.0,0010.75,0004.78,0004.09
2022-08-03 15:49:00,,0829.6,5.00,0.00,31.5,27.9,00.0,39.4,32.3,35.5,0000.0,0011.03,0004.78,0004.05
2022-08-03 15:50:00,,0829.6,5.00,0.00,31.8,27.6,00.0,39.4,32.4,34.5,0000.0,0011.63,0004.75,0004.02
2022-08-03 15:51:00,,0829.6,5.00,0.00,31.9,27.6,00.0,39.4,32.3,33.9,0000.0,0012.00,0004.69,0003.98
2022-08-03 15:52:00,,0829.6,4.99,0.00,31.9,27.6,00.0,39.4,32.2,33.8,0000.0,0012.65,0004.64,0003.94
2022-08-03 15:53:00,,0829.6,5.01,0.00,31.9,27.8,00.0,39.5,32.1,33.9,0000.0,0013.74,0004.63,0003.91
2022-08-03 15:54:00,,0829.5,4.99,0.00,31.9,27.9,00.0,39.5,32.1,33.6,0000.0,0013.53,0004.64,0003.89
2022-08-03 15:55:00,,0829.7,5.01,0.00,31.8,28.1,00.0,39.6,32.1,33.8,0000.0,0013.73,0004.63,0003.87
2022-08-03 15:56:00,,0829.6,5.00,0.00,31.8,28.3,00.0,39.7,32.2,34.0,0000.0,0013.18,0004.61,0003.85
2022-08-03 15:57:00,,0829.7,4.99,0.00,31.7,28.4,00.0,39.7,32.2,34.8,0000.0,0012.51,0004.59,0003.84
2022-08-03 15:58:00,,0829.6,5.00,0.00,31.7,28.5,00.0,39.7,32.2,35.0,0000.0,0012.08,0004.58,0003.83
2022-08-03 15:59:00,,0829.6,5.00,0.00,31.8,28.6,00.0,39.8,32.3,33.5,0000.0,0012.16,0004.60,0003.85
